Location: Unspecified
(48.8656°N, 0.0000°E)
Time: 11:58:32
(UTC+00:00)

Transit 2A Rocket - Pass Details

Date: 22 June 2019
Orbit: 588 x 915 km, 66.7° (Epoch: 19 July)

Event Time Altitude Azimuth Distance (km) Brightness Sun altitude
Rises 12:12:15 0° 256° (WSW) 3,542 8.5 64.5°
Reaches altitude 10° 12:15:13 10° 269° (W) 2,587 7.9 64.4°
Maximum altitude 12:20:16 27° 325° (NW) 1,639 6.9 64.3°
Drops below altitude 10° 12:25:06 10° 22° (NNE) 2,474 7.5 64.2°
Sets 12:27:54 0° 35° (NE) 3,359 8.1 64.1°
